UMBB

Brest Airport

Airport
ICAO code
UMBB
IATA Code
BQT
Summary
ICAO Region
EUR
ICAO Territory
Location

Shebrin, Brest Region

Serving
Brest
Elevation
468 ft
Coordinates
52° 6' 30" N , 23° 53' 53" E
KCC
Metar
UMBB 280600Z 15002MPS 6000 NSC 06/04 Q1017 NOSIG

Brest Airport is an airport serving Brest, a city in Belarus.

Climatology

Humid continental climate (Köppen climate classification Dfb)

Runways

Designator Length Width Surface Rops
11/29 2620 42 ASP No/No

Airport map

Aerial View

SKYbrary Partners:

Safety knowledge contributed by: